sat.trackr.live / text

‹ back to catalog

2023-085A

NORAD 57004 · 2023-085A

PAYLOAD ACTIVE UNKNOWN

§ Identity

Operator
Country
PRC
Launch date
2023-06-15
Launch site
TAISC
Launch vehicle
Mass (kg)
RCS (m²)

External: N2YO · Heavens-Above · Gunter

§ Orbital elements

Epoch: 2026-09-21T22:09:50.641920Z

Period
93.96 min
Inclination
97.5019°
Eccentricity
0.0007387
Mean motion
15.32555697 rev/d
Perigee alt
463.1 km
Apogee alt
473.2 km
Semi-major
6,846.3 km
B*
2.8528e-4
RAAN
16.0517°
Arg perigee
55.1441°
Mean anomaly
305.0494°
Rev number
18,137

§ Raw data

2023-085A1 57004U 23085A   26264.92350280  .00008896  00000+0  28528-3 0  99912 57004  97.5019  16.0517 0007387  55.1441 305.0494 15.32555697181377

JSON: /api/v1/satellites/57004 · /tle

For live sub-satellite position, see the globe view (requires WebGL).

§ Visibility from observer

Set your observer location to see the next 7 days of passes ≥ 10°. The values pass through the URL so the page stays shareable.

No JS? Fill the form by hand. The geolocation button needs JavaScript.